| time (UTC) | temp C | wind direction | speed KPH | gust KPH | rain 1hr cm | rain 24hr cm | rain mn cm | humidity % | barometer mb |
| 20260503211504 | 16 | 284 | 1.6 | 6.4 | 0.00 | 0.00 | 0.00 | 82 | 1018.0 |
| 20260503210005 | 16 | 297 | 1.6 | 8.0 | 0.00 | 0.00 | 0.00 | 83 | 1018.0 |
| 20260503204504 | 16 | 299 | 1.6 | 6.4 | 0.00 | 0.00 | 0.00 | 83 | 1018.1 |
| 20260503203004 | 16 | 260 | 0.0 | 4.8 | 0.00 | 0.00 | 0.00 | 84 | 1017.9 |
| 20260503201511 | 16 | 174 | 0.0 | 1.6 | 0.00 | 0.00 | 0.00 | 83 | 1017.8 |
| 20260503200005 | 16 | 233 | 1.6 | 3.2 | 0.00 | 0.00 | 0.00 | 82 | 1017.9 |
| 20260503194506 | 16 | 281 | 1.6 | 8.0 | 0.00 | 0.00 | 0.00 | 82 | 1017.8 |
| 20260503193004 | 16 | 244 | 3.2 | 9.7 | 0.00 | 0.00 | 0.00 | 81 | 1017.8 |
| 20260503191505 | 16 | 197 | 3.2 | 8.0 | 0.00 | 0.00 | 0.00 | 81 | 1017.8 |
| 20260503190012 | 16 | 186 | 3.2 | 9.7 | 0.00 | 0.00 | 0.00 | 81 | 1017.7 |
| 20260503183004 | 17 | 254 | 6.4 | 12.9 | 0.00 | 0.00 | 0.00 | 79 | 1017.6 |
| 20260503180016 | 17 | 243 | 6.4 | 17.7 | 0.00 | 0.00 | 0.00 | 75 | 1017.3 |
| 20260503174504 | 17 | 251 | 8.0 | 16.1 | 0.00 | 0.00 | 0.00 | 75 | 1017.3 |
| 20260503173004 | 18 | 265 | 8.0 | 17.7 | 0.00 | 0.00 | 0.00 | 75 | 1017.2 |
| 20260503081504 | 17 | 326 | 6.4 | 12.9 | 0.00 | 0.00 | 0.00 | 80 | 1019.5 |
| 20260503080110 | 17 | 324 | 4.8 | 11.3 | 0.00 | 0.00 | 0.00 | 78 | 1019.3 |
| 20260503071504 | 16 | 332 | 3.2 | 9.7 | 0.00 | 0.00 | 0.00 | 79 | 1019.7 |
| 20260503054504 | 15 | 0 | 0.0 | 0.0 | 0.00 | 0.00 | 0.00 | 77 | 1019.8 |
| 20260503053005 | 14 | 0 | 0.0 | 0.0 | 0.00 | 0.00 | 0.00 | 76 | 1019.8 |
| 20260503043006 | 11 | 111 | 1.6 | 3.2 | 0.00 | 0.00 | 0.00 | 82 | 1019.6 |
| 20260503040004 | 11 | 116 | 1.6 | 3.2 | 0.00 | 0.00 | 0.00 | 82 | 1019.5 |
| 20260503034504 | 11 | 106 | 1.6 | 3.2 | 0.00 | 0.00 | 0.00 | 81 | 1019.4 |
| 20260503031504 | 11 | 134 | 3.2 | 3.2 | 0.00 | 0.00 | 0.00 | 79 | 1019.3 |
| 20260503030005 | 11 | 131 | 3.2 | 9.7 | 0.00 | 0.00 | 0.00 | 79 | 1019.3 |
| 20260503024507 | 11 | 133 | 3.2 | 6.4 | 0.00 | 0.00 | 0.00 | 79 | 1019.4 |
| 20260503021504 | 12 | 90 | 3.2 | 6.4 | 0.00 | 0.00 | 0.00 | 79 | 1019.4 |
| 20260503014504 | 11 | 123 | 1.6 | 8.0 | 0.00 | 0.00 | 0.00 | 81 | 1019.5 |
| 20260503013004 | 11 | 101 | 0.0 | 1.6 | 0.00 | 0.00 | 0.00 | 82 | 1019.7 |
| 20260503011506 | 11 | 130 | 1.6 | 4.8 | 0.00 | 0.00 | 0.00 | 83 | 1019.9 |
| 20260503010006 | 11 | 121 | 0.0 | 3.2 | 0.00 | 0.00 | 0.00 | 83 | 1019.9 |
| 20260503004505 | 11 | 0 | 0.0 | 0.0 | 0.00 | 0.00 | 0.00 | 81 | 1020.0 |
| 20260503003005 | 11 | 0 | 0.0 | 0.0 | 0.00 | 0.00 | 0.00 | 81 | 1020.1 |
| 20260503001505 | 12 | 14 | 0.0 | 1.6 | 0.00 | 0.00 | 0.00 | 82 | 1020.2 |
| 20260503000004 | 12 | 15 | 0.0 | 1.6 | 0.00 | 0.00 | 0.00 | 81 | 1020.1 |
| 20260502234504 | 12 | 352 | 0.0 | 1.6 | 0.00 | 0.00 | 0.00 | 82 | 1020.2 |
| 20260502233004 | 13 | 99 | 0.0 | 1.6 | 0.00 | 0.00 | 0.00 | 82 | 1020.3 |
| 20260502231504 | 13 | 105 | 0.0 | 1.6 | 0.00 | 0.00 | 0.00 | 82 | 1020.4 |
| 20260502224504 | 15 | 155 | 0.0 | 3.2 | 0.00 | 0.00 | 0.00 | 81 | 1020.6 |
| 20260502223004 | 15 | 155 | 0.0 | 3.2 | 0.00 | 0.00 | 0.00 | 80 | 1020.7 |
| 20260502221505 | 15 | 155 | 1.6 | 4.8 | 0.00 | 0.00 | 0.00 | 80 | 1020.8 |
| 20260502220008 | 14 | 155 | 0.0 | 1.6 | 0.00 | 0.00 | 0.00 | 82 | 1020.7 |
| 20260502214504 | 14 | 149 | 0.0 | 1.6 | 0.00 | 0.00 | 0.00 | 79 | 1020.6 |
| 20260502213004 | 15 | 153 | 0.0 | 4.8 | 0.00 | 0.00 | 0.00 | 78 | 1020.6 |